Alexandria, LA

5:29 AM CST on February 24, 2017 (GMT -0600)
Alexandria International

Weather History for KAEX - November, 2012

Change the Weather History Date:

Tuesday, November 6, 2012

  Actual Average Record
Temperature  
Mean Temperature 55 °F 61 °F  
Max Temperature 65 °F 73 °F 86 °F (2005)
Min Temperature 45 °F 48 °F 27 °F (1899)
Degree Days  
Heating Degree Days 10 6  
Month to date heating degree days 11 31  
Since 1 July heating degree days 106 104  
Growing Degree Days 5 (Base 50)    
Moisture  
Dew Point 49 °F    
Average Humidity 74    
Maximum Humidity 100    
Minimum Humidity 48    
Precipitation  
Precipitation 0.00 in 0.15 in 2.63 in (1925)
Month to date precipitation T 0.73  
Year to date precipitation 47.52 45.04  
Snow  
Snow 0.00 in - 0.00 in ()
Month to date snowfall 0.0  
Since 1 July snowfall 0.0  
Since 1 September snowfall 0.0  
Snow Depth 0.00 in    
Sea Level Pressure  
Sea Level Pressure 30.05 in    
Wind  
Wind Speed 6 mph (NW)    
Max Wind Speed 15 mph    
Max Gust Speed 25 mph    
Visibility 7 miles    
Events Fog    
T = Trace of Precipitation, MM = Missing Value Source: NWS Daily Summary

Daily Weather History Graph

Daily Weather History Graph

Search for Another Location

Airport or City:

Trip Planner

Search our weather history database for the weather conditions in past years. The results will help you decide how hot, cold, wet, or windy it might be!

Date:

Astronomy

Nov. 06, 2012 Rise Set
Actual Time 6:30 AM CST 5:16 PM CST
Civil Twilight 6:05 AM CST 5:42 PM CST
Nautical Twilight 5:36 AM CST 6:11 PM CST
Astronomical Twilight 5:07 AM CST 6:39 PM CST
Moon 11:51 PM CST (11/6) 12:26 PM CST (11/6)
Length of Visible Light 11h 37m
Length of Day
10h 46m
Waning Gibbous, 53% of the Moon is Illuminated
Nov 6
Waning Gibbous
Nov 6
Last Quarter
Nov 13
New
Nov 20
First Quarter
Nov 28
Full

Hourly Weather History & Observations

Time (CST) Temp. Dew Point Humidity Pressure Visibility Wind Dir Wind Speed Gust Speed Precip Events Conditions
12:09 AM 57.2 °F 55.4 °F 94% 29.97 in 0.2 mi Calm Calm - N/A Fog Fog
12:53 AM 55.9 °F 55.9 °F 100% 29.98 in 0.2 mi NE 3.5 mph - N/A Fog Fog
1:53 AM 55.0 °F 54.0 °F 96% 30.00 in 0.2 mi NNW 5.8 mph - N/A Fog Fog
3:10 AM 55.4 °F 53.6 °F 94% 30.00 in 0.2 mi North 3.5 mph - N/A Fog Fog
3:17 AM 55.4 °F 53.6 °F 94% 30.00 in 0.8 mi WNW 3.5 mph - N/A   Mist
3:27 AM 53.6 °F 53.6 °F 100% 30.00 in 1.8 mi WNW 4.6 mph - N/A   Overcast
3:34 AM 53.6 °F 53.6 °F 100% 30.00 in 2.5 mi NW 4.6 mph - N/A   Overcast
3:50 AM 53.6 °F 53.6 °F 100% 30.00 in 1.5 mi NNW 6.9 mph - N/A   Overcast
3:53 AM 54.0 °F 53.1 °F 97% 30.01 in 1.5 mi NNW 9.2 mph - N/A   Overcast
4:04 AM 53.6 °F 53.6 °F 100% 30.00 in 2.0 mi NNW 4.6 mph - N/A   Overcast
4:17 AM 53.6 °F 53.6 °F 100% 30.00 in 4.0 mi NW 5.8 mph - N/A   Overcast
4:53 AM 53.1 °F 52.0 °F 96% 30.02 in 5.0 mi NW 8.1 mph - N/A   Overcast
6:08 AM 51.8 °F 48.2 °F 88% 30.04 in 8.0 mi NW 9.2 mph - N/A   Overcast
6:35 AM 51.8 °F 48.2 °F 88% 30.05 in 8.0 mi WNW 6.9 mph - N/A   Overcast
6:53 AM 51.1 °F 48.0 °F 89% 30.06 in 8.0 mi NW 5.8 mph - N/A   Overcast
7:53 AM 51.1 °F 46.9 °F 86% 30.10 in 10.0 mi NW 8.1 mph - N/A   Overcast
8:53 AM 55.0 °F 46.9 °F 74% 30.11 in 10.0 mi NNW 6.9 mph - N/A   Overcast
9:00 AM 53.6 °F 46.4 °F 77% 30.09 in 10.0 mi WNW 9.2 mph - N/A   Scattered Clouds
9:53 AM 57.0 °F 46.9 °F 69% 30.11 in 10.0 mi NW 10.4 mph - N/A   Scattered Clouds
10:07 AM 55.4 °F 46.4 °F 72% 30.10 in 10.0 mi NNW 10.4 mph - N/A   Mostly Cloudy
10:29 AM 57.2 °F 48.2 °F 72% 30.09 in 9.0 mi NW 11.5 mph - N/A   Scattered Clouds
10:37 AM 55.4 °F 48.2 °F 77% 30.10 in 9.0 mi WNW 10.4 mph - N/A   Mostly Cloudy
10:53 AM 57.0 °F 48.0 °F 72% 30.11 in 10.0 mi WNW 13.8 mph 17.3 mph N/A   Mostly Cloudy
11:53 AM 59.0 °F 48.9 °F 69% 30.10 in 10.0 mi NW 10.4 mph - N/A   Overcast
12:43 PM 62.6 °F 46.4 °F 55% 30.07 in 10.0 mi NNW 10.4 mph 18.4 mph N/A   Partly Cloudy
12:53 PM 63.0 °F 46.0 °F 54% 30.07 in 10.0 mi NNW 10.4 mph 17.3 mph N/A   Partly Cloudy
1:53 PM 64.0 °F 45.0 °F 50% 30.06 in 10.0 mi NW 11.5 mph 17.3 mph N/A   Mostly Cloudy
2:53 PM 64.9 °F 45.0 °F 48% 30.04 in 10.0 mi WNW 9.2 mph - N/A   Clear
3:53 PM 64.0 °F 44.1 °F 48% 30.04 in 10.0 mi NW 9.2 mph - N/A   Clear
4:53 PM 62.1 °F 44.1 °F 52% 30.04 in 10.0 mi NW 8.1 mph - N/A   Clear
5:53 PM 55.9 °F 45.0 °F 67% 30.06 in 10.0 mi Calm Calm - N/A   Clear
6:53 PM 53.1 °F 45.0 °F 74% 30.08 in 10.0 mi Calm Calm - N/A   Clear
7:53 PM 51.1 °F 46.0 °F 83% 30.08 in 10.0 mi Calm Calm - N/A   Clear
8:53 PM 48.0 °F 45.0 °F 89% 30.09 in 10.0 mi Calm Calm - N/A   Clear
9:53 PM 46.9 °F 44.1 °F 90% 30.09 in 10.0 mi Calm Calm - N/A   Clear
10:53 PM 46.0 °F 43.0 °F 89% 30.09 in 9.0 mi Calm Calm - N/A   Clear
11:53 PM 45.0 °F 42.1 °F 90% 30.09 in 9.0 mi Calm Calm - N/A   Clear